User: anonymous
Location: Brno
(49.2000°N, 16.6330°E)
Time: 11:10:03
(UTC+02:00)
Language:

RESURS DK-1 - Orbit

View from above orbital plane
View from above orbital plane
View from above satellite
View from above satellite

Ground track
Ground track

The orbit data is extracted from the following two-line orbital elements,

1 29228U 06021A   14245.18981416  .00000855  00000-0  74749-4 0  1812
2 29228 069.9377 168.6711 0002190 128.6289 033.0039 15.00779988455123
Epoch (UTC): 02 September 2014 04:33:19
Eccentricity: 0.0002190
inclination: 69.9377°
perigee height: 563 km
apogee height: 566 km
right ascension of ascending node: 168.6711°
argument of perigee: 128.6289°
revolutions per day: 15.00779988
mean anomaly at epoch: 33.0039°
orbit number at epoch: 45512

The dashed part of the orbit path shows where the satellite is in the earth's shadow,  

DLR